TimeCDT,TemperatureF,Dew PointF,Humidity,Sea Level PressureIn,VisibilityMPH,Wind Direction,Wind SpeedMPH,Gust SpeedMPH,PrecipitationIn,Events,Conditions,WindDirDegrees,DateUTC
12:15 AM,54.9,41.2,60,29.83,10.0,North,3.5,-,N/A,,Overcast,360,2012-10-09 05:15:00
12:35 AM,54.0,40.5,60,29.83,10.0,Calm,Calm,-,N/A,,Overcast,0,2012-10-09 05:35:00
12:55 AM,53.2,40.3,61,29.83,10.0,Calm,Calm,-,N/A,,Overcast,0,2012-10-09 05:55:00
1:15 AM,51.8,39.9,64,29.83,10.0,Calm,Calm,-,N/A,,Overcast,0,2012-10-09 06:15:00
1:55 AM,50.7,39.7,66,29.83,10.0,South,3.5,-,N/A,,Overcast,180,2012-10-09 06:55:00
2:15 AM,51.3,40.5,67,29.83,10.0,Calm,Calm,-,N/A,,Overcast,0,2012-10-09 07:15:00
3:15 AM,47.7,38.3,70,29.83,10.0,Calm,Calm,-,N/A,,Clear,0,2012-10-09 08:15:00
3:35 AM,45.9,36.9,71,29.83,10.0,Calm,Calm,-,N/A,,Clear,0,2012-10-09 08:35:00
3:55 AM,46.0,37.9,73,29.83,10.0,Calm,Calm,-,N/A,,Scattered Clouds,0,2012-10-09 08:55:00
4:15 AM,45.1,37.8,75,29.84,10.0,SSW,3.5,-,N/A,,Mostly Cloudy,210,2012-10-09 09:15:00
4:35 AM,45.5,37.8,74,29.84,10.0,Calm,Calm,-,N/A,,Overcast,0,2012-10-09 09:35:00
4:55 AM,45.5,37.4,73,29.86,10.0,Calm,Calm,-,N/A,,Mostly Cloudy,0,2012-10-09 09:55:00
5:15 AM,47.3,40.5,77,29.84,10.0,NNW,5.8,-,N/A,,Scattered Clouds,330,2012-10-09 10:15:00
5:35 AM,49.1,42.6,78,29.83,10.0,NNW,8.1,-,N/A,,Clear,340,2012-10-09 10:35:00
5:55 AM,50.2,43.2,77,29.84,10.0,NW,5.8,-,N/A,,Clear,320,2012-10-09 10:55:00
6:15 AM,49.6,44.1,81,29.85,10.0,NNW,6.9,-,N/A,,Clear,330,2012-10-09 11:15:00
6:55 AM,48.7,44.8,86,29.87,10.0,NNW,6.9,-,N/A,,Clear,330,2012-10-09 11:55:00
7:15 AM,48.9,45.5,88,29.88,10.0,NNW,9.2,-,N/A,,Clear,330,2012-10-09 12:15:00
7:35 AM,49.8,46.0,87,29.89,10.0,NW,12.7,-,N/A,,Mostly Cloudy,320,2012-10-09 12:35:00
7:55 AM,50.2,45.3,83,29.91,10.0,NNW,15.0,23.0,N/A,,Overcast,330,2012-10-09 12:55:00
8:15 AM,50.0,44.2,81,29.92,10.0,NNW,17.3,21.9,N/A,,Overcast,340,2012-10-09 13:15:00
8:35 AM,50.0,42.4,75,29.93,10.0,NNW,18.4,27.6,N/A,,Overcast,330,2012-10-09 13:35:00
8:55 AM,49.5,40.6,72,29.94,10.0,NNW,18.4,25.3,N/A,,Overcast,330,2012-10-09 13:55:00
9:15 AM,49.1,39.4,69,29.95,10.0,NNW,24.2,-,N/A,,Overcast,330,2012-10-09 14:15:00
9:35 AM,48.2,39.0,71,29.96,10.0,NNW,21.9,29.9,N/A,,Overcast,340,2012-10-09 14:35:00
9:55 AM,47.3,37.9,70,29.97,10.0,NNW,18.4,28.8,N/A,,Overcast,330,2012-10-09 14:55:00
10:15 AM,48.2,36.5,64,29.97,10.0,NW,15.0,19.6,N/A,,Scattered Clouds,320,2012-10-09 15:15:00
10:35 AM,49.1,33.6,55,29.98,10.0,NW,17.3,23.0,N/A,,Scattered Clouds,320,2012-10-09 15:35:00
10:55 AM,49.5,33.6,54,29.98,10.0,NW,18.4,24.2,N/A,,Scattered Clouds,320,2012-10-09 15:55:00
11:15 AM,50.0,32.0,50,29.98,10.0,NNW,16.1,24.2,N/A,,Scattered Clouds,330,2012-10-09 16:15:00
11:35 AM,50.0,30.9,48,29.98,10.0,NW,19.6,25.3,N/A,,Scattered Clouds,320,2012-10-09 16:35:00
11:55 AM,49.1,29.1,46,29.98,10.0,NW,21.9,27.6,N/A,,Mostly Cloudy,320,2012-10-09 16:55:00
12:15 PM,48.9,24.3,38,29.98,10.0,NW,20.7,32.2,N/A,,Mostly Cloudy,320,2012-10-09 17:15:00
12:35 PM,49.6,27.3,42,29.98,10.0,NNW,18.4,25.3,N/A,,Scattered Clouds,340,2012-10-09 17:35:00
12:55 PM,50.0,25.9,39,29.99,10.0,NW,18.4,27.6,N/A,,Clear,320,2012-10-09 17:55:00
1:15 PM,50.0,26.1,39,29.99,10.0,NW,16.1,26.5,N/A,,Clear,320,2012-10-09 18:15:00
1:35 PM,50.9,26.4,39,29.98,10.0,NW,20.7,27.6,N/A,,Scattered Clouds,320,2012-10-09 18:35:00
1:55 PM,52.0,26.4,37,29.98,10.0,NW,18.4,24.2,N/A,,Scattered Clouds,310,2012-10-09 18:55:00
2:15 PM,52.9,25.7,35,29.97,10.0,NNW,21.9,31.1,N/A,,Clear,330,2012-10-09 19:15:00
2:35 PM,53.1,25.5,34,29.98,10.0,NW,20.7,27.6,N/A,,Clear,310,2012-10-09 19:35:00
2:55 PM,55.6,25.9,32,29.97,10.0,NW,21.9,31.1,N/A,,Clear,310,2012-10-09 19:55:00
3:15 PM,55.6,25.5,31,29.98,10.0,NW,24.2,33.4,N/A,,Clear,320,2012-10-09 20:15:00
3:35 PM,56.3,23.0,28,29.98,10.0,NW,25.3,32.2,N/A,,Clear,320,2012-10-09 20:35:00
3:55 PM,54.3,22.6,29,29.98,10.0,NW,27.6,33.4,N/A,,Clear,320,2012-10-09 20:55:00
4:15 PM,55.2,22.3,28,29.99,10.0,NW,21.9,28.8,N/A,,Clear,320,2012-10-09 21:15:00
4:35 PM,55.0,24.1,30,30.00,10.0,NW,17.3,31.1,N/A,,Clear,320,2012-10-09 21:35:00
4:55 PM,54.0,24.6,32,30.00,10.0,NW,19.6,29.9,N/A,,Clear,320,2012-10-09 21:55:00
5:15 PM,53.6,25.3,34,30.01,10.0,NW,19.6,25.3,N/A,,Clear,320,2012-10-09 22:15:00
5:35 PM,51.8,24.6,35,30.02,10.0,NW,17.3,26.5,N/A,,Clear,320,2012-10-09 22:35:00
5:55 PM,52.0,25.7,36,30.02,10.0,NNW,11.5,23.0,N/A,,Mostly Cloudy,330,2012-10-09 22:55:00
6:15 PM,51.3,26.4,38,30.03,10.0,North,13.8,24.2,N/A,,Mostly Cloudy,360,2012-10-09 23:15:00
6:35 PM,49.1,27.5,43,30.04,10.0,North,10.4,-,N/A,,Scattered Clouds,350,2012-10-09 23:35:00
6:55 PM,48.0,27.5,45,30.05,10.0,North,9.2,-,N/A,,Scattered Clouds,350,2012-10-09 23:55:00
7:15 PM,47.7,27.5,46,30.06,10.0,North,6.9,-,N/A,,Mostly Cloudy,360,2012-10-10 00:15:00
7:35 PM,46.2,27.5,48,30.07,10.0,North,8.1,-,N/A,,Mostly Cloudy,360,2012-10-10 00:35:00
7:55 PM,43.3,27.3,53,30.08,10.0,North,5.8,-,N/A,,Scattered Clouds,360,2012-10-10 00:55:00
8:15 PM,41.2,26.6,56,30.08,10.0,Calm,Calm,-,N/A,,Clear,0,2012-10-10 01:15:00
8:35 PM,35.8,24.6,64,30.09,10.0,Calm,Calm,-,N/A,,Clear,0,2012-10-10 01:35:00
8:55 PM,35.8,24.6,64,30.10,10.0,Calm,Calm,-,N/A,,Clear,0,2012-10-10 01:55:00
9:15 PM,33.1,22.5,65,30.10,10.0,Calm,Calm,-,N/A,,Clear,0,2012-10-10 02:15:00
9:35 PM,33.1,23.0,66,30.12,10.0,Calm,Calm,-,N/A,,Clear,0,2012-10-10 02:35:00
9:55 PM,30.7,23.2,74,30.12,10.0,SW,3.5,-,N/A,,Clear,220,2012-10-10 02:55:00
10:15 PM,27.0,19.8,74,30.13,10.0,Calm,Calm,-,N/A,,Clear,0,2012-10-10 03:15:00
10:35 PM,28.9,22.1,76,30.13,10.0,Calm,Calm,-,N/A,,Clear,0,2012-10-10 03:35:00
10:55 PM,28.4,22.1,77,30.14,10.0,SSW,4.6,-,N/A,,Clear,200,2012-10-10 03:55:00
11:15 PM,28.0,21.6,77,30.14,10.0,Calm,Calm,-,N/A,,Clear,0,2012-10-10 04:15:00
11:35 PM,26.4,21.2,81,30.15,10.0,Calm,Calm,-,N/A,,Clear,0,2012-10-10 04:35:00
11:55 PM,26.6,21.9,82,30.14,10.0,Calm,Calm,-,N/A,,Clear,0,2012-10-10 04:55:00